Location: Franzen
(48.6167°N, 15.3833°E)
Time: 13:34:52
(UTC+00:00)

ATLAS 5 CENTAUR R/B - Pass Details

Date: 22 April 2021
Orbit: 516 x 1141 km, 63.3° (Epoch: 02 May)

Event Time Altitude Azimuth Distance (km) Brightness Sun altitude
Rises 23:17:53 0° 319° (NW) 3,161 5.8 -28.7°
Reaches altitude 10° 23:20:07 10° 323° (NW) 2,325 5.0 -28.6°
Maximum altitude 23:25:29 63° 45° (NE) 974 2.6 -28.5°
Enters shadow 23:27:06 47° 102° (ESE) 1,193 2.8 -28.5°
